period_start,C,m1,H,J0,J1,J2,J3,J4,J5,JA,JB,JC,JD,JJ,JK,JN,#
2014-03-29 00:00:46,0.12,3.45,0.00,11.91,17.19,20.33,6.29,33.17,1009.29,2076.21,2356.17,2490.00,2714.87,349.57,334.23,19.22,0000 0000 0000 0000 000000
2014-03-29 00:01:46,0.14,3.45,0.00,11.91,17.19,20.32,6.29,33.13,1009.29,2076.21,2355.96,2489.81,2714.47,350.53,334.75,19.23,0000 0000 0000 0000 000000
2014-03-29 00:02:46,0.17,3.45,0.00,11.91,17.19,20.31,6.24,33.00,1009.29,2076.20,2355.58,2489.46,2714.19,349.92,334.10,19.23,0000 0000 0000 0000 000000
2014-03-29 00:03:47,0.28,3.45,0.00,11.92,17.18,20.30,6.29,33.04,1009.29,2076.34,2355.23,2489.19,2714.07,350.18,334.19,19.24,0000 0000 0000 0000 000000
2014-03-29 00:04:47,0.28,3.46,0.00,11.92,17.18,20.33,6.27,33.13,1009.29,2076.43,2355.08,2489.07,2714.01,350.38,334.49,19.24,0000 0000 0000 0000 000000
2014-03-29 00:05:47,0.11,3.46,0.00,11.94,17.17,20.32,6.39,33.13,1009.29,2076.46,2355.03,2489.02,2713.99,350.61,334.69,19.25,0000 0000 0000 0000 000000
2014-03-29 00:06:48,0.09,3.46,0.00,11.94,17.17,20.34,6.09,33.25,1009.29,2076.54,2354.93,2489.00,2713.85,349.26,333.63,19.26,0000 0000 0000 0000 000000
2014-03-29 00:07:48,0.17,3.46,0.00,11.94,17.17,20.33,6.18,33.13,1009.29,2076.53,2354.69,2488.96,2713.49,348.86,333.02,19.26,0000 0000 0000 0000 000000
2014-03-29 00:08:48,0.10,3.46,0.00,11.94,17.17,20.33,6.19,33.21,1009.29,2076.51,2354.36,2488.68,2713.20,349.88,334.00,19.27,0000 0000 0000 0000 000000
2014-03-29 00:09:48,0.22,3.46,0.00,11.94,17.17,20.34,6.25,33.08,1009.29,2076.55,2354.14,2488.29,2713.07,350.11,334.21,19.27,0000 0000 0000 0000 000000
2014-03-29 00:10:49,0.19,3.46,0.00,11.94,17.17,20.31,6.24,33.13,1009.29,2076.55,2354.02,2488.13,2713.02,350.26,334.35,19.28,0000 0000 0000 0000 000000
2014-03-29 00:11:49,0.13,3.46,0.00,11.94,17.17,20.34,6.27,33.00,1009.29,2076.66,2353.87,2488.05,2713.00,350.38,334.49,19.29,0000 0000 0000 0000 000000
2014-03-29 00:12:49,0.14,3.46,0.00,11.95,17.17,20.32,6.38,33.08,1009.29,2076.62,2353.41,2488.01,2712.72,350.55,334.63,19.29,0000 0000 0000 0000 000000
2014-03-29 00:13:49,0.11,3.46,0.00,11.94,17.17,20.33,6.27,33.08,1009.29,2076.53,2353.15,2487.98,2712.36,349.79,333.90,19.30,0000 0000 0000 0000 000000
2014-03-29 00:14:50,0.09,3.46,0.00,11.94,17.17,20.32,6.29,33.17,1009.29,2076.55,2353.03,2487.79,2712.15,350.63,334.84,19.30,0000 0000 0000 0000 000000
2014-03-29 00:15:50,0.16,3.47,0.00,11.96,17.16,20.34,6.36,33.13,1009.29,2076.57,2352.66,2487.35,2712.04,350.40,334.43,19.31,0000 0000 0000 0000 000000
2014-03-29 00:16:50,0.26,3.47,0.00,11.97,17.16,20.37,6.38,33.08,1009.29,2076.60,2352.27,2487.12,2711.99,350.54,334.67,19.32,0000 0000 0000 0000 000000
2014-03-29 00:17:50,0.22,3.47,0.00,11.97,17.16,20.37,6.13,33.00,1009.29,2076.78,2352.09,2487.04,2711.92,349.24,333.35,19.32,0000 0000 0000 0000 000000
2014-03-29 00:18:50,0.20,3.47,0.00,11.97,17.15,20.36,6.31,33.17,1009.29,2076.81,2351.90,2487.00,2711.50,350.14,334.21,19.33,0000 0000 0000 0000 000000
2014-03-29 00:19:51,0.14,3.47,0.00,11.97,17.15,20.33,6.32,33.08,1009.29,2076.77,2351.40,2486.72,2711.18,350.59,334.65,19.33,0000 0000 0000 0000 000000
2014-03-29 00:20:51,0.25,3.47,0.00,11.97,17.15,20.33,6.15,33.04,1009.29,2076.81,2351.15,2486.32,2711.07,349.78,333.96,19.34,0000 0000 0000 0000 000000
2014-03-29 00:21:51,0.25,3.47,0.00,11.97,17.14,20.34,6.25,33.25,1009.29,2076.87,2351.05,2486.15,2711.02,349.26,333.38,19.34,0000 0000 0000 0000 000000
2014-03-29 00:22:51,0.14,3.47,0.00,11.97,17.14,20.34,6.22,33.17,1009.30,2076.87,2350.89,2486.05,2710.91,349.91,333.90,19.35,0000 0000 0000 0000 000000
2014-03-29 00:23:52,0.13,3.47,0.00,11.97,17.14,20.35,6.15,33.00,1009.29,2076.88,2350.41,2486.02,2710.57,349.78,333.67,19.36,0000 0000 0000 0000 000000
2014-03-29 00:24:52,0.15,3.48,0.00,11.97,17.14,20.34,6.23,33.08,1009.29,2076.86,2350.14,2485.97,2710.22,350.31,334.38,19.36,0000 0000 0000 0000 000000
2014-03-29 00:25:52,0.14,3.48,0.00,11.97,17.14,20.34,6.33,33.29,1009.29,2076.90,2350.01,2485.68,2710.08,350.49,334.55,19.37,0000 0000 0000 0000 000000
2014-03-29 00:26:52,0.20,3.48,0.00,11.97,17.14,20.35,6.17,33.17,1009.29,2076.95,2349.63,2485.31,2710.03,349.69,333.78,19.37,0000 0000 0000 0000 000000
2014-03-29 00:27:53,0.26,3.48,0.00,11.97,17.14,20.33,6.22,33.00,1009.29,2076.96,2349.25,2485.12,2709.97,349.32,333.43,19.38,0000 0000 0000 0000 000000
2014-03-29 00:28:53,0.14,3.48,0.00,11.97,17.14,20.34,6.13,33.04,1009.30,2076.95,2349.10,2485.04,2709.83,348.75,332.89,19.39,0000 0000 0000 0000 000000
2014-03-29 00:29:53,0.09,3.48,0.00,11.97,17.14,20.32,6.24,33.38,1009.30,2076.96,2349.03,2485.01,2709.44,349.21,333.32,19.39,0000 0000 0000 0000 000000
2014-03-29 00:30:53,0.10,3.48,0.00,11.97,17.14,20.36,6.23,33.17,1009.30,2076.95,2348.87,2484.95,2709.16,349.55,333.66,19.40,0000 0000 0000 0000 000000
2014-03-29 00:31:53,0.13,3.48,0.00,11.97,17.14,20.35,6.17,33.17,1009.30,2076.95,2348.40,2484.63,2709.05,349.52,333.62,19.40,0000 0000 0000 0000 000000
2014-03-29 00:32:54,0.25,3.48,0.00,11.97,17.14,20.34,6.25,33.08,1009.29,2076.95,2348.14,2484.26,2708.97,350.20,334.12,19.41,0000 0000 0000 0000 000000
2014-03-29 00:33:54,0.18,3.48,0.00,11.97,17.14,20.35,6.18,33.17,1009.29,2076.98,2348.02,2484.10,2708.79,349.69,334.04,19.42,0000 0000 0000 0000 000000
2014-03-29 00:34:54,0.12,3.48,0.00,11.97,17.14,20.36,6.28,33.04,1009.30,2076.98,2347.82,2484.03,2708.43,350.17,334.43,19.42,0000 0000 0000 0000 000000
2014-03-29 00:35:54,0.17,3.49,0.00,11.98,17.14,20.34,6.32,33.21,1009.29,2076.99,2347.38,2483.99,2708.17,350.51,334.56,19.43,0000 0000 0000 0000 000000
2014-03-29 00:36:55,0.15,3.49,0.00,11.98,17.14,20.38,6.07,33.08,1009.29,2076.98,2347.22,2483.95,2708.07,349.27,333.36,19.43,0000 0000 0000 0000 000000
2014-03-29 00:37:55,0.06,3.49,0.00,11.99,17.14,20.40,6.20,33.21,1009.29,2076.98,2347.11,2483.77,2708.01,349.81,333.97,19.44,0000 0000 0000 0000 000000
2014-03-29 00:38:55,0.11,3.49,0.00,11.99,17.14,20.38,6.26,33.13,1009.31,2076.96,2347.03,2483.34,2707.94,349.82,333.88,19.44,0000 0000 0000 0000 000000
2014-03-29 00:39:55,0.15,3.49,0.00,11.99,17.14,20.37,6.27,33.13,1009.30,2076.98,2346.85,2483.13,2707.75,350.41,334.55,19.45,0000 0000 0000 0000 000000
2014-03-29 00:40:55,0.19,3.49,0.00,11.99,17.14,20.34,6.19,33.04,1009.29,2076.99,2346.46,2483.05,2707.37,349.91,333.83,19.46,0000 0000 0000 0000 000000
2014-03-29 00:41:56,0.16,3.49,0.00,11.99,17.14,20.35,6.22,33.33,1009.30,2076.98,2346.22,2483.01,2707.16,349.47,333.75,19.46,0000 0000 0000 0000 000000
2014-03-29 00:42:56,0.10,3.49,0.00,12.00,17.14,20.36,6.24,33.04,1009.29,2076.99,2346.07,2482.92,2707.05,350.19,334.09,19.47,0000 0000 0000 0000 000000
2014-03-29 00:43:56,0.07,3.49,0.00,12.01,17.14,20.40,6.22,33.08,1009.31,2076.98,2345.79,2482.55,2706.99,349.57,333.62,19.47,0000 0000 0000 0000 000000
2014-03-29 00:44:56,0.25,3.49,0.00,12.02,17.14,20.38,6.25,33.17,1009.33,2076.98,2345.34,2482.22,2706.74,350.06,334.27,19.48,0000 0000 0000 0000 000000
2014-03-29 00:45:56,0.21,3.49,0.00,12.02,17.14,20.38,6.26,33.17,1009.31,2076.97,2345.12,2482.08,2706.33,349.97,333.35,19.49,0000 0000 0000 0000 000000
2014-03-29 00:46:57,0.18,3.50,0.00,12.02,17.14,20.37,6.20,33.17,1009.32,2076.99,2344.89,2482.00,2706.12,349.74,333.49,19.49,0000 0000 0000 0000 000000
2014-03-29 00:47:57,0.14,3.50,0.00,12.02,17.14,20.37,6.17,33.25,1009.32,2076.99,2344.43,2481.78,2706.03,348.79,332.87,19.50,0000 0000 0000 0000 000000
2014-03-29 00:48:57,0.23,3.50,0.00,12.02,17.14,20.38,6.10,33.04,1009.33,2076.98,2344.16,2481.39,2705.95,350.23,334.25,19.50,0000 0000 0000 0000 000000
2014-03-29 00:49:57,0.18,3.50,0.00,12.03,17.14,20.38,6.21,33.29,1009.34,2076.98,2344.05,2481.18,2705.70,349.74,333.77,19.51,0000 0000 0000 0000 000000
2014-03-29 00:50:58,0.14,3.50,0.00,12.04,17.14,20.39,6.23,33.21,1009.31,2076.99,2343.84,2481.07,2705.28,349.45,333.47,19.51,0000 0000 0000 0000 000000
2014-03-29 00:51:58,0.18,3.50,0.00,12.04,17.14,20.36,6.23,33.04,1009.31,2076.99,2343.40,2481.02,2705.10,350.29,334.27,19.52,0000 0000 0000 0000 000000
2014-03-29 00:52:58,0.14,3.50,0.00,12.04,17.14,20.38,6.26,33.21,1009.30,2076.99,2343.14,2480.84,2705.02,350.30,334.28,19.53,0000 0000 0000 0000 000000
2014-03-29 00:53:58,0.16,3.50,0.00,12.04,17.14,20.38,6.26,33.21,1009.31,2076.99,2342.79,2480.40,2704.80,350.57,334.48,19.53,0000 0000 0000 0000 000000
2014-03-29 00:54:59,0.28,3.50,0.00,12.05,17.14,20.41,6.20,33.21,1009.29,2076.99,2342.32,2480.16,2704.37,349.54,333.40,19.54,0000 0000 0000 0000 000000
2014-03-29 00:55:59,0.25,3.51,0.00,12.06,17.14,20.41,6.31,33.29,1009.29,2076.99,2342.11,2480.05,2704.13,350.23,334.18,19.54,0000 0000 0000 0000 000000
2014-03-29 00:57:00,0.11,3.51,0.00,12.07,17.14,20.41,6.33,33.25,1009.29,2076.99,2342.04,2480.01,2704.05,350.06,334.02,19.55,0000 0000 0000 0000 000000
2014-03-29 00:58:00,0.04,3.51,0.00,12.07,17.14,20.37,6.24,33.04,1009.30,2076.99,2341.93,2479.93,2703.99,349.78,333.99,19.56,0000 0000 0000 0000 000000
2014-03-29 00:59:00,0.07,3.51,0.00,12.07,17.14,20.38,6.29,33.33,1009.30,2076.99,2341.49,2479.48,2703.67,350.46,334.11,19.56,0000 0000 0000 0000 000000
2014-03-29 01:00:00,0.32,3.51,0.00,12.07,17.14,20.36,6.32,33.13,1009.30,2076.99,2341.18,2479.19,2703.28,349.88,333.85,19.57,0000 0000 0000 0000 000000
2014-03-29 01:01:00,0.23,3.51,0.00,12.07,17.14,20.37,6.31,33.21,1009.29,2076.99,2341.06,2479.07,2703.10,349.80,333.76,19.57,0000 0000 0000 0000 000000
2014-03-29 01:02:01,0.09,3.51,0.00,12.09,17.14,20.39,6.19,33.29,1009.30,2076.98,2340.98,2479.02,2703.03,349.98,333.93,19.58,0000 0000 0000 0000 000000
2014-03-29 01:03:01,0.05,3.51,0.00,12.09,17.15,20.40,6.05,33.21,1009.30,2076.99,2340.61,2478.93,2702.96,349.82,333.77,19.59,0000 0000 0000 0000 000000
2014-03-29 01:04:01,0.13,3.51,0.00,12.09,17.15,20.40,6.39,33.04,1009.30,2076.99,2340.26,2478.56,2702.55,350.72,334.43,19.59,0000 0000 0000 0000 000000
2014-03-29 01:05:01,0.31,3.51,0.00,12.09,17.15,20.41,6.33,33.17,1009.29,2076.98,2340.08,2478.21,2702.20,350.66,334.60,19.60,0000 0000 0000 0000 000000
2014-03-29 01:06:02,0.19,3.52,0.00,12.09,17.15,20.42,6.29,33.25,1009.31,2076.97,2339.80,2478.07,2702.07,349.59,333.64,19.60,0000 0000 0000 0000 000000
2014-03-29 01:07:02,0.14,3.52,0.00,12.09,17.16,20.42,6.33,33.08,1009.31,2076.99,2339.32,2478.01,2702.00,349.80,333.74,19.61,0000 0000 0000 0000 000000
2014-03-29 01:08:02,0.14,3.52,0.00,12.10,17.16,20.43,6.16,33.08,1009.30,2076.99,2339.12,2477.81,2701.62,349.98,333.91,19.61,0000 0000 0000 0000 000000
2014-03-29 01:09:03,0.19,3.52,0.00,12.12,17.17,20.45,6.42,33.08,1009.30,2076.99,2339.03,2477.41,2701.26,350.14,334.04,19.62,0000 0000 0000 0000 000000
2014-03-29 01:10:03,0.22,3.52,0.00,12.12,17.17,20.47,6.24,33.21,1009.32,2076.98,2338.78,2477.17,2701.09,350.67,334.55,19.63,0000 0000 0000 0000 000000
2014-03-29 01:11:03,0.17,3.52,0.00,12.13,17.17,20.47,6.18,33.08,1009.30,2076.99,2338.31,2477.05,2701.01,349.43,333.35,19.63,0000 0000 0000 0000 000000
2014-03-29 01:12:03,0.15,3.52,0.00,12.14,17.17,20.47,6.27,33.29,1009.30,2076.98,2338.08,2476.94,2700.80,349.79,333.68,19.64,0000 0000 0000 0000 000000
2014-03-29 01:13:03,0.11,3.52,0.00,12.14,17.17,20.46,6.35,33.04,1009.30,2076.95,2337.60,2476.57,2700.34,350.49,334.35,19.64,0000 0000 0000 0000 000000
2014-03-29 01:14:03,0.36,3.52,0.00,12.14,17.17,20.44,6.16,33.04,1009.30,2076.97,2337.22,2476.22,2700.12,349.71,333.50,19.65,0000 0000 0000 0000 000000
2014-03-29 01:15:04,0.24,3.53,0.00,12.14,17.17,20.46,6.30,33.21,1009.31,2076.96,2337.08,2476.07,2700.02,350.53,333.93,19.66,0000 0000 0000 0000 000000
2014-03-29 01:16:04,0.06,3.53,0.00,12.15,17.17,20.47,6.14,33.00,1009.30,2076.98,2336.97,2476.02,2699.84,349.43,333.27,19.66,0000 0000 0000 0000 000000
2014-03-29 01:17:04,0.11,3.53,0.00,12.15,17.17,20.48,6.28,33.17,1009.31,2076.99,2336.66,2475.96,2699.48,350.15,333.99,19.67,0000 0000 0000 0000 000000
2014-03-29 01:18:04,0.19,3.53,0.00,12.16,17.17,20.48,6.31,33.29,1009.31,2076.98,2336.27,2475.58,2699.19,350.83,334.64,19.67,0000 0000 0000 0000 000000
2014-03-29 01:19:04,0.28,3.53,0.00,12.17,17.17,20.48,6.26,33.17,1009.30,2076.98,2336.09,2475.24,2699.07,349.18,333.07,19.68,0000 0000 0000 0000 000000
2014-03-29 01:20:04,0.14,3.53,0.00,12.17,17.17,20.47,6.27,33.17,1009.30,2076.99,2336.02,2475.09,2698.99,350.02,333.86,19.68,0000 0000 0000 0000 000000
2014-03-29 01:21:04,0.08,3.53,0.00,12.18,17.18,20.45,6.10,33.04,1009.30,2076.98,2335.89,2475.03,2698.84,349.59,333.42,19.69,0000 0000 0000 0000 000000
2014-03-29 01:22:05,0.07,3.53,0.00,12.19,17.18,20.44,6.38,33.08,1009.29,2076.99,2335.47,2474.96,2698.44,350.10,334.17,19.70,0000 0000 0000 0000 000000
2014-03-29 01:23:05,0.23,3.53,0.00,12.19,17.19,20.47,6.22,33.08,1009.30,2076.97,2335.17,2474.61,2698.19,349.67,333.52,19.70,0000 0000 0000 0000 000000
2014-03-29 01:24:05,0.24,3.53,0.00,12.21,17.19,20.47,6.15,33.13,1009.32,2076.93,2335.01,2474.23,2698.07,350.16,333.96,19.71,0000 0000 0000 0000 000000
2014-03-29 01:25:05,0.11,3.53,0.00,12.21,17.19,20.47,6.35,33.08,1009.30,2076.92,2334.74,2474.08,2697.96,349.71,333.57,19.71,0000 0000 0000 0000 000000
2014-03-29 01:26:05,0.15,3.54,0.00,12.22,17.19,20.44,6.30,33.00,1009.31,2076.93,2334.33,2474.02,2697.63,350.66,334.76,19.72,0000 0000 0000 0000 000000
2014-03-29 01:27:06,0.18,3.54,0.00,12.22,17.19,20.46,6.06,33.21,1009.31,2076.94,2334.13,2473.97,2697.28,349.87,333.54,19.73,0000 0000 0000 0000 000000
2014-03-29 01:28:06,0.13,3.54,0.00,12.24,17.19,20.47,6.27,33.21,1009.31,2076.92,2334.00,2473.74,2697.09,350.20,333.76,19.73,0000 0000 0000 0000 000000
2014-03-29 01:29:06,0.12,3.54,0.00,12.24,17.19,20.45,6.28,33.04,1009.31,2076.91,2333.62,2473.34,2697.01,349.96,333.73,19.74,0000 0000 0000 0000 000000
2014-03-29 01:30:07,0.24,3.54,0.00,12.24,17.19,20.49,6.21,33.17,1009.33,2076.89,2333.24,2473.12,2696.76,349.87,333.76,19.74,0000 0000 0000 0000 000000
2014-03-29 01:31:07,0.21,3.54,0.00,12.24,17.20,20.49,6.23,33.17,1009.33,2076.84,2333.07,2473.04,2696.33,349.37,333.38,19.75,0000 0000 0000 0000 000000
2014-03-29 01:32:07,0.03,3.54,0.00,12.26,17.21,20.48,6.22,33.21,1009.33,2076.77,2332.68,2472.90,2696.12,350.46,333.97,19.75,0000 0000 0000 0000 000000
2014-03-29 01:33:07,0.16,3.54,0.00,12.27,17.22,20.51,6.25,33.08,1009.32,2076.70,2332.27,2472.55,2696.04,350.47,334.18,19.76,0000 0000 0000 0000 000000
2014-03-29 01:34:07,0.17,3.54,0.00,12.27,17.22,20.51,6.42,33.25,1009.31,2076.75,2332.10,2472.22,2696.00,350.86,334.55,19.77,0000 0000 0000 0000 000000
2014-03-29 01:35:08,0.17,3.54,0.00,12.28,17.22,20.48,6.25,33.13,1009.32,2076.78,2332.03,2472.08,2695.76,349.51,333.25,19.77,0000 0000 0000 0000 000000
2014-03-29 01:36:08,0.16,3.54,0.00,12.29,17.22,20.51,6.36,33.08,1009.30,2076.82,2331.80,2472.03,2695.32,350.55,334.22,19.78,0000 0000 0000 0000 000000
2014-03-29 01:37:08,0.19,3.55,0.00,12.30,17.22,20.53,6.39,33.04,1009.29,2076.78,2331.34,2471.98,2695.11,350.38,334.05,19.78,0000 0000 0000 0000 000000
2014-03-29 01:38:08,0.09,3.55,0.00,12.29,17.22,20.56,6.08,32.88,1009.29,2076.74,2331.12,2471.72,2695.03,348.88,332.89,19.79,0000 0000 0000 0000 000000
2014-03-29 01:39:08,0.14,3.55,0.00,12.30,17.22,20.58,6.14,33.17,1009.30,2076.72,2331.01,2471.32,2694.95,349.32,333.05,19.80,0000 0000 0000 0000 000000
2014-03-29 01:40:09,0.15,3.55,0.00,12.31,17.22,20.60,6.27,33.25,1009.29,2076.77,2330.67,2471.11,2694.65,350.05,333.72,19.80,0000 0000 0000 0000 000000
2014-03-29 01:41:09,0.29,3.55,0.00,12.33,17.22,20.59,6.30,33.17,1009.29,2076.77,2330.25,2471.04,2694.25,350.36,334.00,19.81,0000 0000 0000 0000 000000
2014-03-29 01:42:09,0.18,3.55,0.00,12.34,17.23,20.57,6.40,33.04,1009.29,2076.74,2330.08,2470.99,2694.09,350.67,334.28,19.81,0000 0000 0000 0000 000000
2014-03-29 01:43:09,0.07,3.55,0.00,12.34,17.23,20.60,6.27,33.17,1009.29,2076.74,2329.89,2470.72,2694.00,350.48,333.98,19.82,0000 0000 0000 0000 000000
2014-03-29 01:44:10,0.14,3.55,0.00,12.34,17.23,20.62,6.39,33.00,1009.29,2076.63,2329.40,2470.29,2693.76,350.52,334.13,19.83,0000 0000 0000 0000 000000
2014-03-29 01:45:10,0.21,3.55,0.00,12.35,17.24,20.62,6.21,33.04,1009.29,2076.55,2329.14,2470.11,2693.36,350.19,334.20,19.83,0000 0000 0000 0000 000000
2014-03-29 01:46:10,0.11,3.55,0.00,12.37,17.24,20.60,6.22,33.04,1009.29,2076.64,2328.98,2470.04,2693.14,349.60,333.24,19.84,0000 0000 0000 0000 000000
2014-03-29 01:47:10,0.16,3.56,0.00,12.37,17.24,20.57,6.25,32.92,1009.29,2076.68,2328.68,2469.97,2693.05,350.22,333.82,19.84,0000 0000 0000 0000 000000
2014-03-29 01:48:11,0.18,3.56,0.00,12.38,17.24,20.61,6.34,33.25,1009.29,2076.79,2328.25,2469.71,2693.00,350.61,334.18,19.85,0000 0000 0000 0000 000000
2014-03-29 01:49:11,0.31,3.56,0.00,12.38,17.24,20.61,6.27,33.13,1009.30,2076.78,2328.06,2469.35,2692.81,350.26,333.85,19.85,0000 0000 0000 0000 000000
2014-03-29 01:50:11,0.20,3.56,0.00,12.39,17.24,20.62,6.13,33.04,1009.29,2076.65,2327.81,2469.13,2692.36,349.69,333.29,19.86,0000 0000 0000 0000 000000
2014-03-29 01:51:11,0.09,3.56,0.00,12.39,17.24,20.58,6.17,33.13,1009.29,2076.60,2327.36,2469.04,2692.13,350.40,333.42,19.87,0000 0000 0000 0000 000000
2014-03-29 01:52:12,0.13,3.56,0.00,12.40,17.25,20.61,6.38,33.17,1009.30,2076.53,2327.13,2469.00,2692.03,349.38,333.27,19.87,0000 0000 0000 0000 000000
2014-03-29 01:53:12,-0.01,3.56,0.00,12.41,17.25,20.63,6.20,33.13,1009.29,2076.59,2327.05,2468.88,2691.98,350.60,334.13,19.88,0000 0000 0000 0000 000000
2014-03-29 01:54:12,0.13,3.56,0.00,12.42,17.26,20.62,6.27,33.08,1009.29,2076.66,2327.01,2468.58,2691.77,349.66,333.23,19.88,0000 0000 0000 0000 000000
2014-03-29 01:55:13,0.22,3.56,0.00,12.42,17.27,20.61,6.28,33.13,1009.30,2076.65,2326.78,2468.23,2691.32,349.11,332.71,19.89,0000 0000 0000 0000 000000
2014-03-29 01:56:13,0.24,3.56,0.00,12.43,17.27,20.61,6.36,33.13,1009.29,2076.54,2326.33,2468.08,2691.12,350.18,333.71,19.90,0000 0000 0000 0000 000000
2014-03-29 01:57:13,0.11,3.56,0.00,12.44,17.27,20.64,6.33,33.25,1009.30,2076.56,2326.11,2468.01,2691.03,350.64,334.14,19.90,0000 0000 0000 0000 000000
2014-03-29 01:58:14,0.08,3.57,0.00,12.45,17.27,20.65,6.17,32.92,1009.32,2076.45,2325.85,2467.82,2690.91,349.26,332.98,19.91,0000 0000 0000 0000 000000
2014-03-29 01:59:14,0.05,3.57,0.00,12.46,17.27,20.64,6.39,33.08,1009.31,2076.44,2325.39,2467.41,2690.52,350.85,334.21,19.91,0000 0000 0000 0000 000000
2014-03-29 02:00:14,0.33,3.57,0.00,12.47,17.27,20.65,6.27,33.13,1009.32,2076.27,2325.13,2467.18,2690.20,350.29,333.74,19.92,0000 0000 0000 0000 000000
2014-03-29 02:01:14,0.02,3.57,0.00,12.48,17.28,20.65,6.32,33.17,1009.31,2076.17,2324.90,2467.07,2690.07,350.54,334.00,19.92,0000 0000 0000 0000 000000
2014-03-29 02:02:14,0.05,3.57,0.00,12.48,17.28,20.64,6.15,33.08,1009.30,2076.13,2324.60,2466.98,2689.97,349.43,332.93,19.93,0000 0000 0000 0000 000000
2014-03-29 02:03:14,0.08,3.57,0.00,12.49,17.29,20.67,6.18,33.00,1009.32,2076.13,2324.22,2466.65,2689.61,350.07,333.53,19.94,0000 0000 0000 0000 000000
2014-03-29 02:04:15,0.28,3.57,0.00,12.51,17.29,20.68,6.25,33.04,1009.34,2076.10,2324.05,2466.28,2689.24,349.90,333.32,19.94,0000 0000 0000 0000 000000
2014-03-29 02:05:15,0.20,3.57,0.00,12.51,17.29,20.70,6.30,33.17,1009.32,2076.09,2323.99,2466.10,2689.09,350.07,333.87,19.95,0000 0000 0000 0000 000000
2014-03-29 02:06:15,0.07,3.57,0.00,12.51,17.29,20.67,6.41,33.21,1009.34,2076.13,2323.70,2466.03,2689.02,350.59,334.15,19.95,0000 0000 0000 0000 000000
2014-03-29 02:07:15,0.15,3.57,0.00,12.53,17.29,20.68,6.18,33.00,1009.40,2076.17,2323.27,2465.98,2688.94,349.53,333.00,19.96,0000 0000 0000 0000 000000
2014-03-29 02:08:16,0.14,3.57,0.00,12.54,17.30,20.70,6.12,33.00,1009.35,2076.19,2323.08,2465.82,2688.60,350.13,333.77,19.97,0000 0000 0000 0000 000000
2014-03-29 02:09:16,0.20,3.57,0.00,12.54,17.31,20.68,6.16,33.25,1009.35,2076.09,2322.97,2465.37,2688.23,349.19,332.49,19.97,0000 0000 0000 0000 000000
2014-03-29 02:10:16,0.16,3.58,0.00,12.54,17.32,20.69,6.05,33.04,1009.40,2076.08,2322.54,2465.14,2688.08,349.58,333.15,19.98,0000 0000 0000 0000 000000
2014-03-29 02:11:16,0.18,3.58,0.00,12.55,17.32,20.69,6.22,33.04,1009.40,2076.07,2322.19,2465.05,2687.99,349.32,332.51,19.98,0000 0000 0000 0000 000000
2014-03-29 02:12:17,0.10,3.58,0.00,12.56,17.32,20.68,6.28,33.17,1009.42,2076.05,2322.07,2464.99,2687.70,349.65,333.79,19.99,0000 0000 0000 0000 000000
2014-03-29 02:13:17,0.11,3.58,0.00,12.56,17.32,20.67,6.20,33.08,1009.46,2076.05,2321.85,2464.73,2687.31,350.41,333.94,19.99,0000 0000 0000 0000 000000
2014-03-29 02:14:17,0.23,3.58,0.00,12.57,17.32,20.66,6.21,33.13,1009.52,2076.03,2321.36,2464.31,2687.11,349.99,333.44,20.00,0000 0000 0000 0000 000000
2014-03-29 02:15:17,0.26,3.58,0.00,12.58,17.34,20.68,6.24,33.08,1009.54,2076.04,2321.13,2464.11,2687.04,349.33,332.80,20.01,0000 0000 0000 0000 000000
2014-03-29 02:16:18,0.13,3.58,0.00,12.59,17.34,20.71,6.16,33.04,1009.56,2076.06,2321.03,2464.04,2686.99,350.21,333.64,20.01,0000 0000 0000 0000 000000
2014-03-29 02:17:18,0.07,3.58,0.00,12.59,17.34,20.67,6.25,33.17,1009.59,2076.05,2320.72,2464.01,2686.74,350.21,333.64,20.02,0000 0000 0000 0000 000000
2014-03-29 02:18:18,0.15,3.58,0.00,12.61,17.34,20.69,6.24,33.08,1009.61,2076.06,2320.29,2463.75,2686.32,350.01,333.44,20.02,0000 0000 0000 0000 000000
2014-03-29 02:19:18,0.28,3.58,0.00,12.62,17.34,20.70,6.17,33.04,1009.63,2076.03,2320.10,2463.33,2686.11,350.46,333.86,20.03,0000 0000 0000 0000 000000
2014-03-29 02:20:19,0.18,3.59,0.00,12.64,17.34,20.70,6.24,33.08,1009.71,2076.03,2319.98,2463.12,2686.03,350.21,333.63,20.04,0000 0000 0000 0000 000000
2014-03-29 02:21:19,0.11,3.59,0.00,12.64,17.36,20.70,6.30,33.42,1009.73,2076.03,2319.56,2463.03,2685.95,349.87,333.35,20.04,0000 0000 0000 0000 000000
2014-03-29 02:22:19,0.15,3.59,0.00,12.64,17.37,20.69,6.09,33.00,1009.71,2076.04,2319.23,2463.00,2685.63,349.61,333.06,20.05,0000 0000 0000 0000 000000
2014-03-29 02:23:20,0.18,3.59,0.00,12.66,17.37,20.71,6.33,33.08,1009.75,2076.04,2319.07,2462.65,2685.24,350.13,333.56,20.05,0000 0000 0000 0000 000000
2014-03-29 02:24:20,0.22,3.59,0.00,12.66,17.37,20.71,6.32,33.21,1009.75,2076.01,2318.87,2462.26,2685.08,350.88,334.27,20.06,0000 0000 0000 0000 000000
2014-03-29 02:25:20,0.18,3.59,0.00,12.67,17.37,20.73,6.23,33.04,1009.76,2076.03,2318.44,2462.09,2684.96,349.66,333.08,20.07,0000 0000 0000 0000 000000
2014-03-29 02:26:20,0.19,3.59,0.00,12.68,17.38,20.74,6.27,33.08,1009.76,2076.03,2318.16,2462.03,2684.73,350.00,333.27,20.07,0000 0000 0000 0000 000000
2014-03-29 02:27:21,0.13,3.59,0.00,12.69,17.39,20.75,6.12,33.00,1009.78,2076.01,2318.01,2461.90,2684.32,349.15,332.71,20.08,0000 0000 0000 0000 000000
2014-03-29 02:28:21,0.16,3.59,0.00,12.69,17.39,20.75,6.28,33.04,1009.78,2076.01,2317.62,2461.45,2684.11,350.32,333.69,20.08,0000 0000 0000 0000 000000
2014-03-29 02:29:21,0.26,3.60,0.00,12.71,17.39,20.67,6.11,33.21,1009.77,2076.01,2317.23,2461.16,2684.03,350.18,333.21,20.09,0000 0000 0000 0000 000000
2014-03-29 02:30:21,0.21,3.60,0.00,12.72,17.39,20.69,6.30,33.21,1009.77,2076.00,2317.07,2461.05,2683.85,349.55,333.56,20.09,0000 0000 0000 0000 000000
2014-03-29 02:31:22,0.10,3.60,0.00,12.72,17.40,20.73,6.23,33.21,1009.78,2076.00,2316.78,2460.99,2683.45,349.83,333.16,20.10,0000 0000 0000 0000 000000
2014-03-29 02:32:22,0.17,3.60,0.00,12.73,17.41,20.71,6.36,33.25,1009.78,2076.00,2316.42,2460.76,2683.18,349.82,333.17,20.11,0000 0000 0000 0000 000000
2014-03-29 02:33:22,0.20,3.60,0.00,12.74,17.42,20.72,6.26,33.13,1009.77,2076.00,2316.15,2460.34,2683.05,350.24,333.56,20.11,0000 0000 0000 0000 000000
2014-03-29 02:34:22,0.20,3.60,0.00,12.75,17.42,20.68,6.28,33.25,1009.77,2076.00,2316.05,2460.14,2682.97,350.57,333.87,20.12,0000 0000 0000 0000 000000
2014-03-29 02:35:23,0.12,3.60,0.00,12.76,17.42,20.69,6.23,33.04,1009.78,2076.00,2315.87,2460.05,2682.56,350.17,333.46,20.12,0000 0000 0000 0000 000000
2014-03-29 02:36:23,0.16,3.60,0.00,12.77,17.43,20.68,6.26,32.92,1009.78,2076.00,2315.41,2459.99,2682.20,350.06,333.36,20.13,0000 0000 0000 0000 000000